[[{"header":{"parameterUnit":"m.s-1","parameterCategory":1,"la1":30.2991,"la2":30.254,"lo1":-89.0895,"lo2":-89.0444,"dy":0.0017,"dx":0.0017,"nx":28,"ny":28,"refTime":"2025-06-02T03:00:00:Z","depth":0,"parameterNumber":2,"parameterNumberName":"U-component_of_WINDS"},"data":[0,0,0,0,0,0,0,0,0,0,0,0,0,0,0,0,0,0,0,0,0,0,0,0,0,0,0,0,0,0,0,0,0,0,0,0,0,0,0,0,0,0,0,0,0,0,0,0,0,0,0,0,0,0,0,0,0,0,-3.688,-3.688,0,-3.692,-3.692,-3.6921,-3.6853,-3.685,-3.6848,-3.6846,-3.6884,-3.6887,-3.689,0,0,0,0,0,0,0,0,0,0,0,0,0,-3.6741,-3.6744,-3.688,-3.688,-3.6881,-3.692,-3.6921,-3.6921,-3.6853,-3.685,-3.6847,-3.6845,-3.6883,-3.6887,-3.6891,0,0,0,0,0,0,0,0,0,0,0,0,0,-3.6794,-3.6745,-3.688,-3.6852,-3.685,-3.692,-3.6921,-3.6921,-3.6854,-3.685,-3.6847,-3.6843,-3.6882,-3.6886,-3.6891,-3.699,0,0,-3.6906,-3.6908,0,0,0,0,0,0,0,0,-3.6791,-3.6799,-3.6855,-3.6854,-3.6852,-3.6878,-3.6886,-3.6944,-3.6855,-3.6852,-3.6846,-3.6842,-3.6885,-3.6889,-3.6904,-3.6991,-3.6993,-3.6906,-3.6909,-3.6911,-3.6912,0,0,0,0,0,0,0,-3.6787,-3.6797,-3.6896,-3.6856,-3.6854,-3.6836,-3.684,-3.6896,-3.6887,-3.6852,-3.6847,-3.6853,-3.6883,-3.6899,-3.6904,-3.6994,-3.6906,-3.691,-3.6913,-3.6915,-3.7163,-3.7166,0,0,0,0,0,0,-3.6787,-3.6794,-3.6894,-3.6897,-3.6812,-3.6842,-3.6846,-3.6873,-3.6886,-3.6885,-3.6856,-3.685,-3.6893,-3.6899,-3.6905,-3.702,-3.6911,-3.6915,-3.6918,-3.7159,-3.7163,-3.7167,0,0,0,0,0,0,-3.6785,-3.6797,-3.6893,-3.6844,-3.6855,-3.6848,-3.6879,-3.6875,-3.6892,-3.6889,-3.6887,-3.6875,-3.6891,-3.6899,-3.6969,-3.7021,-3.6917,-3.6922,-3.7155,-3.716,-3.7165,-3.7252,0,0,0,0,0,0,-3.6781,-3.6796,-3.6834,-3.6846,-3.6858,-3.6957,-3.6882,-3.6879,-3.6901,-3.6893,-3.6906,-3.6905,-3.6888,-3.6962,-3.6974,-3.7025,-3.6925,-3.715,-3.7157,-3.7164,-3.7244,-3.726,-3.7273,0,0,0,0,0,-3.6776,-3.6857,-3.6837,-3.6849,-3.6905,-3.696,-3.6967,-3.6947,-3.6905,-3.6943,-3.6941,-3.6905,-3.7014,-3.697,-3.6982,-3.7036,-3.7146,-3.7155,-3.7163,-3.7238,-3.7257,-3.7273,0,0,0,0,0,0,-3.6851,-3.6858,-3.6835,-3.6922,-3.6941,-3.6948,-3.6995,-3.6967,-3.6998,-3.6989,-3.6962,-3.6966,-3.7041,-3.7046,-3.6997,-3.7132,-3.7073,-3.7084,-3.7125,-3.7143,-3.7157,-3.7154,-3.6929,0,0,0,0,0,-3.6878,-3.6922,-3.6926,-3.7002,-3.7012,-3.7003,-3.7025,-3.7009,-3.7027,-3.7034,-3.7037,-3.7055,-3.7093,-3.7119,-3.7154,-3.7245,-3.7246,-3.7288,-3.7303,-3.7315,-3.7324,-3.7371,-3.7389,-3.7195,-3.7195,-3.7195,0,0,-3.6933,-3.6942,-3.6972,-3.7017,-3.7029,-3.7075,-3.7009,-3.7061,-3.7094,-3.7041,-3.7107,-3.7111,-3.7129,-3.7211,-3.7246,-3.7217,-3.7378,-3.7325,-3.7335,-3.7337,-3.7382,-3.74,-3.7416,-3.7201,-3.72,-3.7199,0,0,-3.7056,-3.7069,-3.7133,-3.7147,-3.7167,-3.716,-3.7176,-3.7188,-3.7188,-3.7255,-3.7216,-3.7255,-3.7322,-3.7336,-3.7352,-3.7482,-3.7449,-3.7494,-3.7568,-3.7614,-3.763,-3.7643,-3.7688,-3.7704,-3.7504,-3.7504,-3.7504,0,-3.7121,-3.719,-3.7169,-3.7223,-3.7243,-3.7199,-3.7263,-3.7278,-3.7308,-3.7323,-3.729,-3.7372,-3.7382,-3.7465,-3.7497,-3.7512,-3.7528,-3.7491,-3.7629,-3.7643,-3.7655,-3.7697,-3.7714,-3.7509,-3.7509,-3.7508,-3.7508,0,-3.7268,-3.7316,-3.7366,-3.7397,-3.7423,-3.7482,-3.7469,-3.7498,-3.7479,-3.7476,-3.7543,-3.7554,-3.7589,-3.7608,-3.759,-3.7689,-3.767,-3.7634,-3.7574,-3.7679,-3.7718,-3.7734,-3.7517,-3.7515,-3.7513,-3.7512,0,0,-3.7438,-3.7458,-3.7476,-3.7489,-3.7509,-3.7545,-3.7602,-3.7638,-3.7662,-3.7686,-3.7731,-3.7789,-3.7756,-3.7774,-3.7757,-3.7799,-3.7899,-3.7757,-3.7757,-3.7781,-3.8007,-3.8032,-3.8051,-3.7879,-3.7882,-3.7884,-3.8004,0,-3.7559,-3.7657,-3.764,-3.7735,-3.7778,-3.7738,-3.7787,-3.7804,-3.7802,-3.7838,-3.7835,-3.7876,-3.783,-3.7841,-3.788,-3.7879,-3.7943,-3.787,-3.7919,-3.7921,-3.7913,-3.8072,-3.8099,-3.8212,-3.802,-3.8022,-3.8024,0,-3.7713,-3.7743,-3.7842,-3.7854,-3.7872,-3.7917,-3.7948,-3.7983,-3.8001,-3.7997,-3.8018,-3.7994,-3.8049,-3.799,-3.8065,-3.8016,-3.8035,-3.8038,-3.8042,-3.8043,-3.7977,-3.8076,-3.8248,-3.8264,-3.8048,-3.8047,-3.8045,0,-3.7825,-3.7889,-3.7957,-3.797,-3.7986,-3.8018,-3.8027,-3.8042,-3.8064,-3.8092,-3.8106,-3.8139,-3.8157,-3.8183,-3.8168,-3.8127,-3.8246,-3.8186,-3.8242,-3.8242,-3.8267,-3.8265,-3.8442,-3.8283,-3.8283,-3.8283,-3.8282,0,-3.796,-3.8022,-3.8007,-3.8048,-3.8116,-3.8096,-3.8163,-3.8167,-3.8181,-3.8221,-3.8188,-3.8227,-3.8206,-3.8242,-3.8231,-3.8294,-3.8303,-3.83,-3.8296,-3.8302,-3.8302,-3.8312,-3.8303,-3.8287,-3.8286,-3.8285,-3.8285,0,-3.8095,-3.8088,-3.8158,-3.8169,-3.8173,-3.8222,-3.823,-3.8269,-3.8265,-3.8317,-3.8327,-3.8321,-3.8363,-3.8351,-3.8396,-3.8389,-3.8468,-3.8455,-3.8462,-3.8458,-3.8514,-3.8508,-3.8702,-3.8726,-3.8554,-3.8556,-3.8557,0,-3.8182,-3.8228,-3.8244,-3.8269,-3.828,-3.8321,-3.8344,-3.8327,-3.8352,-3.8376,-3.8411,-3.845,-3.848,-3.8548,-3.8547,-3.8581,-3.8567,-3.8633,-3.8572,-3.8576,-3.8566,-3.8562,-3.8566,-3.8644,-3.8646,-3.8648,-3.8649,0,-3.8335,-3.8329,-3.8364,-3.8398,-3.8426,-3.8452,-3.8474,-3.8497,-3.848,-3.851,-3.8553,-3.8576,-3.8622,-3.8661,-3.8692,-3.8699,-3.8671,-3.8669,-3.8683,-3.8689,-3.869,-3.8688,-3.8493,-3.8664,-3.8662,-3.8661,-3.8661,-3.866,-3.8446,-3.8486,-3.8503,-3.8543,-3.8558,-3.858,-3.8616,-3.8617,-3.8653,-3.8689,-3.8677,-3.8725,-3.8741,-3.8781,-3.8792,-3.8829,-3.8804,-3.8825,-3.883,-3.8835,-3.8842,-3.8686,-3.8835,-3.8835,-3.8834,-3.8834,-3.8833,0,-3.8596,-3.8605,-3.8642,-3.8675,-3.8706,-3.8679,-3.8702,-3.873,-3.8773,-3.8791,-3.8822,-3.887,-3.8908,-3.891,-3.8945,-3.8974,-3.8962,-3.8984,-3.898,-3.8982,-3.8863,-3.8846,-3.8993,-3.8993,-3.8993,-3.8993,-3.8993,-3.8992,-3.8678,-3.8742,-3.8738,-3.881,-3.8818,-3.8866,-3.8881,-3.8901,-3.8915,-3.8971,-3.9002,-3.9004,-3.9016,-3.9051,-3.9084,-3.9084,-3.9097,-3.9123,-3.9118,-3.9006,-3.899,-3.8975,-3.8959,-3.9127,-3.9127,-3.9233,-3.9234,-3.9235]},{"header":{"parameterUnit":"m.s-1","parameterCategory":1,"la1":30.2991,"la2":30.254,"lo1":-89.0895,"lo2":-89.0444,"dy":0.0017,"dx":0.0017,"nx":28,"ny":28,"refTime":"2025-06-02T03:00:00:Z","depth":0,"parameterNumber":3,"parameterNumberName":"V-component_of_WINDS"},"data":[0,0,0,0,0,0,0,0,0,0,0,0,0,0,0,0,0,0,0,0,0,0,0,0,0,0,0,0,0,0,0,0,0,0,0,0,0,0,0,0,0,0,0,0,0,0,0,0,0,0,0,0,0,0,0,0,0,0,1.2569,1.2568,0,1.2488,1.2487,1.2486,1.2426,1.2426,1.2425,1.2425,1.2337,1.2336,1.2334,0,0,0,0,0,0,0,0,0,0,0,0,0,1.2668,1.2666,1.2569,1.2568,1.2567,1.2488,1.2487,1.2486,1.2426,1.2426,1.2425,1.2424,1.2338,1.2336,1.2334,0,0,0,0,0,0,0,0,0,0,0,0,0,1.261,1.2666,1.2569,1.2528,1.2523,1.2488,1.2487,1.2486,1.2426,1.2426,1.2425,1.2424,1.2339,1.2336,1.2333,1.2332,0,0,1.2325,1.2324,0,0,0,0,0,0,0,0,1.2613,1.2606,1.2535,1.253,1.2525,1.2467,1.249,1.2434,1.2427,1.2463,1.2425,1.2424,1.2381,1.2374,1.2361,1.2328,1.2324,1.2325,1.2323,1.2322,1.2321,0,0,0,0,0,0,0,1.2617,1.2609,1.2537,1.2534,1.2528,1.2512,1.2503,1.2479,1.2427,1.246,1.2455,1.2447,1.2378,1.2364,1.2358,1.2323,1.2325,1.2322,1.2321,1.232,1.2284,1.2285,0,0,0,0,0,0,1.2628,1.2613,1.2539,1.2534,1.2568,1.2511,1.2501,1.2486,1.2427,1.2418,1.2448,1.2444,1.2369,1.2362,1.2355,1.2349,1.2322,1.2319,1.2318,1.2283,1.2284,1.2285,0,0,0,0,0,0,1.263,1.2622,1.2543,1.2572,1.2561,1.251,1.2494,1.2485,1.2471,1.2418,1.2408,1.2443,1.2368,1.2359,1.2338,1.2345,1.2318,1.2316,1.2283,1.2284,1.2285,1.2337,0,0,0,0,0,0,1.2634,1.2623,1.2623,1.2573,1.256,1.2528,1.2495,1.2484,1.2467,1.2462,1.2411,1.2402,1.2367,1.2343,1.2336,1.2341,1.2313,1.2282,1.2283,1.2284,1.2334,1.2339,1.2344,0,0,0,0,0,1.2637,1.264,1.2623,1.2615,1.2558,1.2529,1.2521,1.2482,1.2467,1.2466,1.2432,1.2403,1.2346,1.2341,1.2333,1.2337,1.2281,1.2283,1.2284,1.2332,1.2338,1.2344,0,0,0,0,0,0,1.269,1.2632,1.2613,1.26,1.257,1.2519,1.2516,1.249,1.2462,1.2459,1.241,1.2399,1.2384,1.2358,1.2354,1.2332,1.231,1.231,1.2349,1.2355,1.236,1.2365,1.2311,0,0,0,0,0,1.2701,1.2683,1.2633,1.2626,1.2612,1.2567,1.2552,1.2525,1.2491,1.2478,1.2443,1.241,1.2384,1.2368,1.2342,1.2331,1.2318,1.233,1.2335,1.2339,1.2339,1.233,1.2334,1.229,1.229,1.229,0,0,1.2721,1.2687,1.2678,1.2636,1.2609,1.259,1.2556,1.2538,1.2523,1.2475,1.2453,1.2427,1.2387,1.2371,1.2362,1.2349,1.2349,1.2341,1.2345,1.2342,1.2332,1.2337,1.234,1.2291,1.2291,1.2291,0,0,1.2748,1.2722,1.2713,1.2688,1.2649,1.2619,1.2617,1.257,1.2551,1.2529,1.2493,1.2474,1.2432,1.2405,1.2385,1.2405,1.2377,1.2398,1.2423,1.2415,1.2418,1.2421,1.2427,1.243,1.2399,1.2399,1.2399,0,1.2778,1.2749,1.2711,1.2695,1.2677,1.2635,1.2625,1.2602,1.2556,1.2543,1.2531,1.2477,1.2447,1.2424,1.2429,1.2415,1.241,1.2402,1.2421,1.2424,1.2426,1.243,1.2433,1.2401,1.2401,1.2401,1.24,0,1.2787,1.2768,1.2766,1.2724,1.2706,1.2693,1.2652,1.2638,1.2613,1.2584,1.2562,1.2526,1.2491,1.2485,1.2459,1.2458,1.2451,1.2431,1.2407,1.2433,1.2437,1.2438,1.2405,1.2404,1.2403,1.2403,0,0,1.2843,1.2782,1.2781,1.2762,1.2717,1.2701,1.2687,1.2655,1.2643,1.2613,1.2598,1.2565,1.2546,1.2524,1.2496,1.249,1.2506,1.247,1.2468,1.2476,1.2501,1.2515,1.2518,1.2489,1.2489,1.2489,1.2504,0,1.2862,1.2834,1.28,1.2783,1.2764,1.2725,1.2712,1.2683,1.2656,1.2636,1.2606,1.2582,1.256,1.2547,1.2539,1.2506,1.251,1.2505,1.2472,1.2472,1.2482,1.252,1.2535,1.255,1.2505,1.2505,1.2506,0,1.2879,1.2853,1.2836,1.2793,1.2784,1.2773,1.2741,1.2723,1.2688,1.2669,1.2647,1.2617,1.2598,1.2579,1.2552,1.2549,1.2535,1.2517,1.2516,1.251,1.2489,1.2513,1.2555,1.2556,1.2508,1.2507,1.2507,0,1.292,1.288,1.2864,1.2849,1.28,1.2793,1.2771,1.2737,1.272,1.2692,1.268,1.2651,1.2634,1.2611,1.2573,1.2563,1.255,1.2528,1.2532,1.2533,1.2529,1.2529,1.2567,1.2523,1.2523,1.2523,1.2523,0,1.2943,1.2933,1.2882,1.2872,1.286,1.2821,1.2809,1.2784,1.2754,1.2737,1.2702,1.2687,1.264,1.2619,1.259,1.2572,1.2565,1.2548,1.254,1.255,1.2552,1.2537,1.2535,1.2524,1.2524,1.2524,1.2524,0,1.2985,1.295,1.293,1.2886,1.2874,1.2867,1.2828,1.2816,1.2789,1.2769,1.2762,1.2718,1.2692,1.2654,1.2616,1.2596,1.2582,1.257,1.2593,1.2588,1.2594,1.2593,1.2622,1.2623,1.2581,1.2582,1.2582,0,1.3001,1.2992,1.2948,1.2935,1.2915,1.2895,1.2879,1.284,1.2824,1.2786,1.2778,1.275,1.2725,1.2685,1.2649,1.262,1.2606,1.2618,1.2601,1.2611,1.2604,1.2604,1.2602,1.2621,1.2622,1.2622,1.2623,0,1.3032,1.3016,1.2994,1.2967,1.2948,1.2924,1.2898,1.289,1.2845,1.2829,1.2803,1.2784,1.2746,1.2718,1.2684,1.2661,1.2634,1.2629,1.2628,1.2637,1.2651,1.2642,1.2602,1.2628,1.2627,1.2627,1.2627,1.2627,1.306,1.3051,1.3018,1.2995,1.2972,1.2949,1.2936,1.2908,1.2886,1.2853,1.2832,1.2807,1.2773,1.2726,1.2704,1.2683,1.2671,1.2671,1.267,1.267,1.2673,1.2656,1.2677,1.2677,1.2676,1.2676,1.2676,0,1.3088,1.3066,1.3045,1.3011,1.2993,1.2972,1.2943,1.2928,1.2907,1.2879,1.2856,1.2826,1.2799,1.2762,1.2732,1.2722,1.2709,1.2716,1.2715,1.2709,1.2685,1.2688,1.2727,1.2727,1.2727,1.2727,1.2727,1.2727,1.3101,1.3084,1.3064,1.3036,1.3013,1.2989,1.2974,1.2953,1.293,1.2899,1.2877,1.2854,1.2821,1.2789,1.2763,1.2753,1.2743,1.2752,1.2738,1.2716,1.2711,1.2707,1.2709,1.2751,1.2751,1.2764,1.2764,1.2764]}]]